Vorticity
26 22 10 29 16 57 29 13 8 7 7 0 20 23 3 7 10 12 38 12 11 3 4 3 7 6 7 3 6 6 8 7 5 5 3 4 4 5 5 6 7 7 6
22 24 28 12 27 12 46 24 10 6 7 0 -19 7 5 11 -17 34 8 20 9 4 4 2 8 5 6 4 2 5 8 7 3 7 7 5 7 7 5 7 6 6 5
10 14 28 13 35 16 57 24 17 9 5 6 -1 26 -0 25 22 -6 -29 23 3 5 5 2 6 5 7 4 3 6 8 7 13 8 4 9 9 7 7 6 6 5 5
20 20 9 17 14 35 -3 46 31 12 5 7 11 -2 6 -41 -0 3 44 -0 -2 5 3 4 5 6 7 5 3 5 5 7 3 8 8 8 3 5 4 4 5 4 4
8 3 17 25 6 30 20 20 41 20 9 5 6 7 -5 25 3 -52 46 29 -0 5 5 4 4 6 6 5 3 4 5 4 6 2 3 5 5 5 5 5 5 4 4
17 16 28 3 41 20 24 1 37 33 14 7 9 5 7 -8 13 11 -34 4 55 8 7 5 4 6 5 8 4 3 3 5 3 4 4 2 -1 -1 1 2 2 4 6
18 7 -1 33 7 41 27 14 21 29 28 12 5 3 12 7 -28 9 7 -21 17 9 1 4 2 6 4 7 6 3 2 3 4 3 3 3 6 4 7 6 8 8 4
1 25 37 -5 38 12 44 31 9 23 30 18 4 9 -4 8 -9 -10 18 -12 22 -7 3 5 2 6 4 5 8 5 2 2 1 1 2 2 1 2 3 3 2 3 4
-2 33 13 46 -16 45 19 42 21 23 34 20 8 4 7 8 22 -18 48 -14 45 5 14 6 4 5 6 5 7 8 6 3 2 3 3 3 3 5 5 5 4 4 3
24 22 14 9 48 44 41 42 35 22 34 15 13 9 -5 6 -15 14 35 32 19 10 8 6 4 4 5 5 6 7 6 6 5 3 4 5 5 6 6 4 4 4 4
43 15 17 -9 -7 68 43 23 48 24 34 20 14 3 -4 2 -26 -15 -24 35 38 -13 21 5 3 5 4 5 5 6 7 7 7 6 6 6 7 5 5 4 4 4 3
45 10 13 14 13 62 20 9 47 29 28 27 13 7 15 -7 9 -13 22 -36 45 26 16 13 3 4 5 5 6 6 6 8 8 8 8 7 7 5 4 4 4 4 4
28 8 8 10 2 10 73 7 42 35 16 31 12 11 -0 2 10 -30 -1 -3 8 -0 -14 -10 3 2 3 6 6 6 6 6 7 7 6 6 6 5 4 4 4 4 3
10 -6 13 42 7 3 61 42 56 41 19 18 15 11 5 9 9 -32 1 -3 50 33 5 7 0 1 3 3 6 5 5 6 5 5 6 6 5 5 3 3 3 2 2
19 -1 8 33 37 5 46 41 64 45 22 15 15 8 20 -12 10 11 26 57 54 -4 12 14 6 6 1 1 3 3 4 4 4 4 4 3 4 3 3 3 0 2 4
14 35 27 -8 52 14 41 43 63 49 30 13 12 6 -3 15 18 -19 -13 40 11 -2 19 10 -13 -9 9 4 -2 2 3 4 3 3 3 2 1 2 3 1 5 4 6
27 30 9 10 79 27 36 43 57 49 36 12 12 3 14 7 -11 6 20 48 22 35 0 7 -13 -6 5 8 4 2 1 -0 1 4 1 2 4 4 4 5 5 6 7
25 8 27 27 59 31 31 41 48 51 36 20 7 8 17 -1 15 -4 -45 -6 3 38 10 11 -13 24 4 6 6 5 5 5 4 5 5 5 7 7 7 7 7 7 6
29 17 22 46 48 21 23 37 38 45 42 19 10 16 -6 5 -8 -14 -8 7 -17 -2 29 -6 7 34 14 4 5 1 5 5 3 7 5 6 6 7 7 7 7 7 4
41 47 55 44 27 21 17 36 42 50 39 17 6 8 10 13 -13 8 -5 1 12 28 13 22 40 1 36 5 -3 4 6 5 5 9 4 6 4 8 7 9 7 5 5
42 -12 84 53 32 31 42 46 40 50 38 20 20 7 3 32 -1 2 35 -3 21 32 19 14 8 24 35 17 -7 2 2 4 3 14 -6 6 7 11 8 6 8 9 -4
11 67 30 49 14 17 46 49 40 46 48 32 12 -2 4 -24 -14 -8 -2 20 32 -2 19 14 42 -31 2 15 22 13 13 12 18 9 13 4 2 4 3 5 2 0 9
-12 26 15 35 64 36 27 10 11 20 28 21 3 -10 10 -19 -9 -9 -20 35 0 20 -19 17 16 23 15 -11 31 2 5 -10 9 17 26 16 13 4 14 15 12 6 1
-17 60 -17 40 33 42 9 1 25 46 16 21 -17 28 -48 -6 8 -12 9 8 11 4 3 30 28 15 18 1 17 19 13 -2 9 5 -12 6 1 6 -2 16 5 12 9
35 23 41 17 28 31 19 44 -11 -14 -44 7 13 19 3 8 11 5 -26 -50 -51 7 -11 -8 14 16 32 27 7 -17 25 15 17 19 -1 31 4 17 -11 -1 12 5 3
20 -3 23 27 -17 11 23 18 15 7 7 30 3 23 14 15 9 18 -10 -16 7 9 -18 6 2 12 6 28 54 6 1 -6 13 2 -13 25 2 6 -11 3 8 0 17
Height
5522 5525 5527 5528 5533 5541 5552 5567 5584 5599 5616 5631 5649 5662 5676 5691 5700 5713 5715 5733 5740 5751 5762 5770 5780 5789 5798 5806 5814 5820 5826 5832 5838 5843 5846 5851 5854 5857 5860 5862 5864 5866 5868
5513 5513 5515 5518 5521 5527 5536 5549 5565 5581 5597 5612 5631 5648 5662 5676 5689 5701 5705 5714 5732 5743 5754 5762 5774 5783 5790 5798 5808 5816 5823 5827 5832 5839 5842 5846 5850 5854 5856 5859 5861 5863 5865
5507 5505 5505 5507 5508 5513 5519 5530 5545 5562 5578 5595 5613 5626 5649 5665 5679 5687 5694 5701 5716 5731 5744 5754 5767 5777 5785 5794 5803 5812 5819 5824 5831 5834 5840 5842 5848 5850 5853 5856 5859 5861 5863
5498 5496 5495 5495 5495 5498 5504 5511 5525 5542 5557 5576 5596 5612 5630 5648 5666 5678 5689 5693 5704 5723 5732 5743 5758 5769 5779 5787 5797 5806 5813 5820 5824 5831 5835 5838 5841 5846 5849 5853 5856 5858 5860
5490 5488 5484 5483 5482 5484 5489 5494 5506 5521 5537 5558 5579 5598 5617 5635 5651 5666 5681 5687 5696 5713 5724 5735 5749 5759 5771 5780 5790 5799 5807 5813 5820 5824 5829 5834 5840 5843 5845 5848 5852 5854 5856
5479 5474 5471 5469 5467 5468 5472 5479 5487 5502 5519 5541 5562 5583 5603 5618 5640 5654 5667 5680 5692 5709 5715 5728 5744 5753 5763 5775 5783 5793 5800 5808 5814 5820 5825 5829 5834 5838 5842 5845 5848 5851 5853
5472 5464 5458 5454 5452 5451 5455 5464 5470 5482 5501 5523 5546 5566 5588 5608 5625 5642 5656 5670 5681 5697 5711 5721 5735 5743 5754 5769 5777 5785 5795 5803 5810 5815 5820 5826 5831 5835 5839 5843 5845 5847 5848
5458 5450 5443 5438 5433 5435 5437 5446 5457 5467 5484 5507 5531 5549 5573 5594 5614 5635 5644 5660 5673 5685 5703 5716 5729 5739 5748 5761 5771 5779 5788 5797 5803 5810 5816 5821 5826 5831 5835 5838 5840 5842 5845
5442 5433 5427 5422 5417 5416 5420 5427 5443 5453 5470 5493 5515 5534 5559 5585 5606 5622 5633 5645 5659 5676 5690 5709 5724 5732 5741 5753 5764 5773 5782 5791 5797 5804 5810 5816 5822 5826 5830 5833 5835 5838 5840
5427 5419 5412 5406 5400 5397 5402 5408 5425 5440 5455 5478 5498 5518 5545 5571 5589 5610 5624 5639 5657 5671 5686 5702 5716 5727 5737 5749 5758 5766 5773 5783 5792 5799 5806 5812 5817 5821 5825 5827 5830 5833 5835
5412 5404 5397 5391 5386 5382 5386 5394 5406 5425 5443 5465 5482 5503 5531 5558 5579 5602 5616 5632 5647 5663 5681 5695 5709 5718 5731 5743 5752 5760 5768 5778 5787 5795 5801 5807 5812 5815 5819 5822 5824 5827 5829
5395 5389 5382 5376 5373 5371 5372 5380 5387 5405 5427 5448 5467 5491 5518 5547 5571 5589 5607 5624 5640 5656 5674 5685 5703 5712 5725 5735 5748 5757 5764 5772 5782 5790 5795 5801 5806 5810 5813 5816 5818 5821 5823
5383 5377 5370 5363 5359 5356 5356 5363 5373 5388 5407 5431 5452 5480 5508 5541 5565 5586 5602 5619 5633 5651 5665 5679 5695 5707 5717 5727 5742 5750 5758 5767 5775 5782 5789 5795 5799 5804 5807 5809 5812 5814 5816
5375 5367 5359 5349 5343 5340 5339 5345 5357 5375 5396 5420 5442 5473 5509 5539 5560 5583 5600 5615 5629 5643 5658 5674 5691 5702 5711 5722 5735 5743 5750 5758 5766 5775 5782 5788 5793 5797 5799 5802 5805 5808 5811
5365 5354 5343 5332 5325 5324 5323 5330 5341 5363 5390 5414 5441 5476 5509 5536 5557 5578 5595 5611 5625 5641 5656 5665 5686 5695 5704 5716 5727 5736 5743 5752 5761 5768 5775 5782 5786 5789 5792 5796 5799 5802 5804
5353 5339 5327 5318 5312 5311 5310 5319 5332 5356 5387 5411 5444 5475 5507 5535 5558 5575 5592 5606 5620 5638 5653 5664 5677 5687 5699 5711 5720 5728 5738 5747 5755 5763 5769 5774 5778 5782 5785 5789 5793 5795 5797
5342 5329 5319 5309 5301 5302 5303 5314 5329 5350 5382 5410 5445 5481 5512 5539 5556 5572 5587 5603 5617 5632 5647 5659 5669 5681 5693 5705 5713 5721 5730 5741 5749 5756 5761 5766 5771 5775 5778 5782 5785 5787 5789
5338 5324 5311 5304 5299 5300 5304 5314 5331 5354 5385 5417 5453 5487 5515 5539 5555 5572 5588 5601 5615 5628 5642 5653 5664 5673 5686 5697 5707 5715 5725 5734 5742 5748 5753 5758 5763 5768 5771 5774 5777 5780 5781
5343 5324 5312 5305 5303 5306 5312 5322 5337 5357 5388 5424 5461 5492 5518 5539 5554 5573 5589 5602 5612 5624 5637 5648 5655 5667 5679 5690 5699 5708 5717 5726 5734 5740 5745 5751 5755 5760 5763 5766 5769 5772 5773
5354 5339 5322 5314 5312 5313 5320 5332 5346 5367 5399 5434 5469 5499 5521 5538 5558 5576 5589 5601 5610 5622 5632 5643 5652 5664 5673 5685 5691 5701 5710 5719 5725 5732 5737 5742 5747 5751 5755 5758 5761 5763 5765
5377 5359 5337 5330 5325 5327 5337 5353 5367 5389 5421 5451 5479 5504 5523 5545 5562 5576 5588 5597 5610 5618 5628 5636 5646 5657 5667 5670 5683 5693 5704 5712 5717 5724 5728 5735 5740 5743 5747 5750 5752 5754 5754
5398 5386 5371 5359 5354 5356 5365 5380 5395 5418 5439 5464 5488 5510 5529 5548 5558 5572 5582 5595 5606 5613 5622 5631 5640 5652 5659 5670 5677 5687 5696 5702 5708 5715 5721 5727 5731 5734 5737 5741 5742 5743 5744
5416 5412 5403 5398 5396 5397 5402 5408 5418 5431 5451 5474 5497 5517 5535 5547 5557 5569 5583 5593 5601 5611 5621 5630 5637 5645 5653 5661 5670 5679 5686 5693 5699 5706 5712 5717 5721 5724 5725 5729 5730 5733 5735
5430 5432 5424 5425 5419 5423 5428 5435 5444 5454 5476 5497 5510 5523 5533 5544 5555 5566 5578 5590 5597 5609 5617 5624 5632 5640 5646 5653 5661 5668 5677 5683 5691 5697 5702 5706 5709 5712 5715 5718 5723 5725 5725
5447 5445 5446 5449 5444 5445 5447 5458 5467 5480 5491 5505 5514 5531 5538 5549 5557 5568 5578 5587 5599 5608 5614 5622 5627 5634 5641 5649 5656 5662 5670 5677 5682 5687 5693 5697 5700 5703 5707 5711 5713 5714 5716
5461 5460 5459 5461 5463 5467 5473 5477 5483 5492 5502 5512 5521 5531 5541 5550 5560 5570 5579 5588 5598 5603 5610 5617 5622 5628 5635 5641 5647 5656 5662 5668 5673 5678 5683 5688 5691 5696 5699 5701 5703 5705 5705